Andalusia, AL

2:49 PM CDT on June 25, 2017 (GMT -0500)
Andalusia

Weather History for K79J - February, 2014

Change the Weather History Date:

Thursday, February 20, 2014

  Actual Average (KCEW) Record (KCEW)
Temperature  
Mean Temperature 73 °F -  
Max Temperature 80 °F 69 °F 79 °F (2017)
Min Temperature 66 °F 43 °F 19 °F (2015)
Cooling Degree Days 8    
Growing Degree Days 23 (Base 50)    
Moisture  
Dew Point 63 °F    
Average Humidity 75    
Maximum Humidity 88    
Minimum Humidity 48    
Precipitation  
Precipitation 0.03 in - - ()
Sea Level Pressure  
Sea Level Pressure 30.01 in    
Wind  
Wind Speed 6 mph (South)    
Max Wind Speed 16 mph    
Max Gust Speed 25 mph    
Visibility 9 miles    
Events Rain    
Averages and records for this station are not official NWS values.
T = Trace of Precipitation, MM = Missing Value Source: NWS Daily Summary

Daily Weather History Graph

Daily Weather History Graph

Search for Another Location

Airport or City:

Trip Planner

Search our weather history database for the weather conditions in past years. The results will help you decide how hot, cold, wet, or windy it might be!

Date:

Astronomy

Feb. 20, 2014 Rise Set
Actual Time 6:22 AM CST 5:36 PM CST
Civil Twilight 5:57 AM CST 6:01 PM CST
Nautical Twilight 5:29 AM CST 6:29 PM CST
Astronomical Twilight 5:01 AM CST 6:58 PM CST
Moon 11:06 PM CST (2/20) 9:27 AM CST (2/20)
Length of Visible Light 12h 04m
Length of Day
11h 14m
Waning Gibbous, 70% of the Moon is Illuminated
Feb 20
Waning Gibbous
Feb 22
Last Quarter
Mar 1
New
Mar 8
First Quarter
Mar 16
Full

Hourly Weather History & Observations

Time (CST) Temp. Heat Index Dew Point Humidity Pressure Visibility Wind Dir Wind Speed Gust Speed Precip Events Conditions
12:51 AM 68.0 °F - 62.6 °F 83% 30.05 in 10.0 mi Variable 6.9 mph - N/A   Overcast
12:56 AM 68.0 °F - 62.1 °F 81% 30.04 in 10.0 mi Variable 5.8 mph - N/A   Overcast
1:20 AM 68.0 °F - 62.6 °F 83% 30.04 in 10.0 mi Variable 3.5 mph - N/A   Overcast
1:30 AM 68.0 °F - 62.6 °F 83% 30.05 in 10.0 mi South 5.8 mph - N/A   Overcast
1:56 AM 68.0 °F - 61.0 °F 78% 30.04 in 10.0 mi SSW 8.1 mph - N/A   Overcast
2:14 AM 66.2 °F - 60.8 °F 83% 30.04 in 10.0 mi Calm Calm - N/A   Overcast
2:43 AM 66.2 °F - 60.8 °F 83% 30.04 in 10.0 mi South 3.5 mph - N/A   Overcast
2:56 AM 66.9 °F - 61.0 °F 81% 30.02 in 10.0 mi South 4.6 mph - N/A   Overcast
3:09 AM 66.2 °F - 60.8 °F 83% 30.03 in 10.0 mi South 4.6 mph - N/A   Overcast
3:56 AM 66.9 °F - 62.1 °F 84% 30.02 in 10.0 mi South 4.6 mph - N/A   Overcast
4:56 AM 66.9 °F - 62.1 °F 84% 30.02 in 10.0 mi SSE 4.6 mph - N/A   Overcast
5:15 AM 66.2 °F - 62.6 °F 88% 30.03 in 10.0 mi SSE 3.5 mph - N/A   Overcast
5:56 AM 66.9 °F - 62.1 °F 84% 30.03 in 10.0 mi South 5.8 mph - N/A   Overcast
6:07 AM 66.2 °F - 62.6 °F 88% 30.04 in 10.0 mi South 5.8 mph - N/A   Overcast
6:56 AM 66.9 °F - 62.1 °F 84% 30.04 in 10.0 mi SSE 4.6 mph - N/A   Overcast
7:56 AM 68.0 °F - 62.1 °F 81% 30.05 in 10.0 mi South 5.8 mph - N/A   Overcast
8:07 AM 69.8 °F - 62.6 °F 78% 30.06 in 10.0 mi Variable 3.5 mph - N/A   Overcast
8:56 AM 72.0 °F - 62.1 °F 71% 30.06 in 10.0 mi South 9.2 mph - N/A   Mostly Cloudy
9:11 AM 75.2 °F - 62.6 °F 65% 30.07 in 10.0 mi Variable 5.8 mph - N/A   Mostly Cloudy
9:23 AM 75.2 °F - 60.8 °F 61% 30.06 in 10.0 mi SSW 6.9 mph - N/A   Scattered Clouds
9:53 AM 77.0 °F - 60.8 °F 57% 30.05 in 10.0 mi South 9.2 mph 21.9 mph N/A   Mostly Cloudy
9:56 AM 77.0 °F - 61.0 °F 58% 30.04 in 10.0 mi South 11.5 mph 21.9 mph N/A   Scattered Clouds
10:56 AM 78.1 °F - 59.0 °F 52% 30.04 in 10.0 mi SW 16.1 mph 25.3 mph N/A   Scattered Clouds
11:56 AM 80.1 °F 80.7 °F 59.0 °F 48% 30.02 in 10.0 mi SSW 12.7 mph 23.0 mph N/A   Partly Cloudy
12:56 PM 80.1 °F 80.9 °F 60.1 °F 50% 29.99 in 10.0 mi SSW 11.5 mph 24.2 mph N/A   Mostly Cloudy
1:56 PM 79.0 °F - 61.0 °F 54% 29.99 in 10.0 mi SSW 11.5 mph 19.6 mph N/A   Overcast
2:54 PM 78.8 °F - 62.6 °F 57% 30.00 in 10.0 mi SSW 8.1 mph - N/A   Overcast
2:56 PM 78.1 °F - 62.1 °F 58% 29.99 in 10.0 mi SW 10.4 mph 16.1 mph N/A   Overcast
3:12 PM 78.8 °F - 62.6 °F 57% 30.00 in 10.0 mi SW 10.4 mph - N/A   Overcast
3:56 PM 77.0 °F - 63.0 °F 62% 29.98 in 10.0 mi SSW 9.2 mph 17.3 mph N/A   Overcast
4:06 PM 75.2 °F - 64.4 °F 69% 29.99 in 10.0 mi SW 8.1 mph 18.4 mph N/A   Mostly Cloudy
4:56 PM 75.0 °F - 64.9 °F 71% 29.99 in 10.0 mi Variable 5.8 mph - N/A   Overcast
5:56 PM 73.0 °F - 64.9 °F 76% 29.99 in 10.0 mi Variable 5.8 mph - N/A   Overcast
6:19 PM 73.4 °F - 64.4 °F 73% 29.99 in 10.0 mi Variable 6.9 mph - N/A   Overcast
6:56 PM 72.0 °F - 64.9 °F 78% 29.98 in 8.0 mi Variable 6.9 mph - 0.00 in   Overcast
7:12 PM 71.6 °F - 66.2 °F 83% 29.99 in 4.0 mi Variable 6.9 mph - 0.00 in Rain Light Rain
7:29 PM 71.6 °F - 66.2 °F 83% 29.99 in 4.0 mi South 3.5 mph - 0.00 in   Haze
7:56 PM 70.0 °F - 66.0 °F 87% 29.98 in 3.0 mi Variable 4.6 mph - 0.00 in   Overcast
8:56 PM 70.0 °F - 66.0 °F 87% 29.96 in 6.0 mi South 5.8 mph - N/A   Overcast
9:39 PM 69.8 °F - 66.2 °F 88% 29.96 in 5.0 mi South 8.1 mph - N/A   Overcast
9:56 PM 70.0 °F - 66.0 °F 87% 29.94 in 5.0 mi SSW 4.6 mph - N/A   Overcast
10:41 PM 71.6 °F - 66.2 °F 83% 29.94 in 10.0 mi South 6.9 mph - 0.00 in   Overcast
10:56 PM 71.1 °F - 66.0 °F 84% 29.93 in 6.0 mi SSW 8.1 mph - 0.02 in Rain Rain
11:33 PM 69.8 °F - 66.2 °F 88% 29.93 in 6.0 mi Variable 4.6 mph - 0.01 in Rain Light Rain
11:56 PM 70.0 °F - 66.0 °F 87% 29.91 in 5.0 mi SW 8.1 mph - 0.01 in   Overcast